SCP
0 0 0 0 0 0 0 0 0 0 0 0 1 1 1 1 1 1 1 1 1 1 1 1 1 1 1 2 3 3 4 4 3 3 3 2 2 1 1 1 1 2 2 3
0 0 0 0 0 0 0 1 1 1 0 0 1 1 1 1 1 1 1 1 1 1 1 1 1 1 1 2 3 3 4 4 4 4 3 3 2 2 2 2 3 3 4 4
0 0 0 0 0 0 1 1 1 1 1 1 1 1 1 1 1 1 1 1 1 1 1 1 1 0 1 1 1 2 3 4 4 4 4 4 4 4 4 4 4 5 4 4
0 0 0 0 0 0 1 1 1 1 0 1 1 1 1 1 1 1 1 1 1 1 1 1 0 0 0 0 1 1 2 3 3 3 4 6 8 8 7 6 5 4 3 2
0 0 0 0 0 0 0 0 0 0 1 0 0 1 1 1 1 1 1 1 1 1 1 0 0 0 0 0 0 1 1 2 2 2 4 5 8 9 8 6 4 2 1 1
0 0 0 0 0 0 0 0 0 1 1 0 0 1 1 1 1 1 1 1 1 1 1 0 0 0 0 0 0 0 1 1 1 1 2 2 4 6 5 4 2 1 1 1
0 0 0 0 0 0 0 0 1 1 1 1 0 0 0 1 1 1 1 1 1 1 0 0 0 0 0 0 0 0 0 1 1 1 1 1 1 2 2 1 1 1 1 1
0 0 0 0 1 1 0 1 1 1 1 1 0 0 0 1 1 1 1 1 1 0 0 0 0 0 0 0 0 0 0 1 1 1 1 1 1 1 1 1 1 1 1 1
0 0 0 0 1 1 1 1 1 2 1 1 0 1 1 1 1 1 1 1 0 0 0 0 0 0 0 0 0 0 0 0 1 1 1 1 1 1 0 0 0 1 1 1
0 0 0 1 1 1 1 1 2 2 1 1 1 1 2 2 2 1 1 0 0 0 0 0 0 0 0 0 0 0 0 0 0 0 1 1 1 0 0 0 0 0 1 1
0 0 0 1 1 1 1 1 2 2 2 2 2 2 2 2 1 1 1 0 0 0 0 0 0 0 0 0 0 0 0 0 0 0 0 0 0 0 0 0 0 0 0 0
0 0 0 1 1 1 1 1 1 2 2 2 2 2 2 1 1 1 1 0 0 0 0 0 0 0 0 0 0 0 0 0 0 0 0 0 0 0 0 0 0 0 0 0
0 0 0 1 1 1 1 1 1 1 1 1 1 1 1 1 1 1 1 1 0 0 0 0 0 0 0 0 0 0 0 0 0 0 0 0 0 0 0 0 0 0 0 0
1 1 1 1 1 1 1 0 0 0 1 1 1 1 1 1 1 1 1 1 0 0 0 0 0 0 0 0 0 0 0 0 0 0 0 0 0 0 0 0 0 0 0 0
1 1 1 1 1 1 1 1 0 0 1 1 1 1 2 2 1 1 1 1 0 0 0 0 0 0 0 0 0 0 0 0 0 0 0 0 0 0 0 0 0 0 0 0
0 0 0 1 1 1 1 1 1 1 1 1 1 2 2 2 1 1 1 0 0 0 0 0 0 0 0 0 0 0 0 0 0 0 0 0 0 0 0 0 0 0 0 0
0 0 0 0 0 1 1 1 1 1 1 1 2 2 2 1 1 1 1 0 0 0 0 0 0 0 0 0 0 0 0 0 0 0 0 0 0 0 0 0 0 0 0 0
0 0 0 0 0 0 0 1 1 1 1 2 2 2 2 1 1 1 1 1 0 0 0 0 0 0 0 0 0 0 0 0 0 0 0 0 0 0 0 0 0 0 0 0
0 0 0 0 0 0 0 0 1 1 2 2 2 2 2 1 1 1 1 1 1 1 0 0 0 0 0 0 0 0 0 0 0 0 0 0 0 0 0 0 0 0 0 0
0 0 0 0 0 0 0 0 1 1 2 2 2 2 2 1 1 1 2 2 1 1 0 0 0 0 0 0 0 0 0 0 0 0 0 0 0 0 0 0 0 0 0 0
0 0 0 0 0 0 0 0 1 1 1 1 1 1 1 1 0 1 2 3 2 1 0 0 0 0 0 0 0 0 0 0 0 0 0 0 0 0 0 0 0 0 0 0
0 0 0 0 0 0 0 0 0 0 1 1 1 0 0 0 0 1 2 3 2 1 0 0 0 0 0 0 0 0 0 0 0 0 0 0 0 0 0 0 0 0 0 0
0 0 0 0 0 0 0 0 0 0 0 0 0 0 0 0 0 1 2 2 2 1 1 0 0 0 0 0 0 0 0 0 0 0 0 0 0 0 0 0 0 0 0 0
0 0 0 0 0 0 0 0 0 0 0 0 0 0 0 0 0 1 1 1 1 1 1 0 0 0 0 0 0 0 0 0 0 0 0 0 0 0 0 0 0 0 0 0
0 0 0 0 0 0 0 0 0 0 0 0 0 0 0 0 0 0 0 0 0 0 0 0 0 0 0 0 0 0 0 0 0 0 0 0 0 0 0 0 0 0 0 0
0 0 0 0 0 0 0 0 0 0 0 0 0 0 0 0 0 0 0 0 0 0 0 0 0 0 0 0 0 0 0 0 0 0 0 0 0 0 0 0 0 0 0 0
0 0 0 0 0 0 0 0 0 0 0 0 0 0 0 0 0 0 0 0 0 0 0 0 0 0 0 0 0 0 0 0 0 0 0 0 0 0 0 0 0 0 0 0
Wind_Speed
3 3 3 3 4 4 5 7 7 7 7 7 6 6 5 4 3 4 4 4 4 3 2 2 2 2 3 3 3 3 3 3 2 2 2 2 2 2 2 2 2 2 2 2
0 0 2 1 1 3 3 4 4 3 5 3 3 4 4 5 5 4 4 4 4 3 2 2 2 2 2 2 3 4 3 3 2 2 2 2 1 2 2 2 1 2 2 2
2 1 2 2 2 3 2 2 4 5 5 4 4 6 6 6 5 5 4 4 4 4 3 3 3 3 3 3 3 4 3 2 2 2 2 1 1 2 2 1 1 1 1 2
2 2 4 5 1 2 3 0 1 2 2 4 4 3 3 4 6 5 4 4 4 3 3 2 2 2 3 3 4 4 3 2 2 2 2 1 1 1 1 1 1 2 2 2
3 3 3 3 0 1 2 1 1 3 3 3 4 4 2 1 3 5 5 3 3 3 4 3 3 3 4 4 3 3 2 2 1 2 2 2 1 1 1 1 1 1 2 2
4 4 5 4 2 2 2 1 0 1 3 4 4 3 2 2 2 2 2 2 2 3 4 4 3 3 4 4 3 2 2 2 1 2 2 2 2 1 0 1 1 1 1 1
3 3 4 3 4 1 3 4 1 2 2 3 4 4 3 3 2 3 3 3 4 4 4 3 3 4 4 3 3 2 2 2 1 1 2 2 2 1 1 1 1 1 1 1
3 3 4 3 1 2 3 1 2 2 2 3 2 1 3 3 3 3 3 3 4 4 3 3 3 4 3 3 2 1 2 2 1 1 1 1 2 1 1 1 1 1 1 1
3 3 1 1 0 1 1 1 1 1 1 3 3 1 2 2 3 3 4 4 3 4 3 2 2 3 4 2 2 2 2 1 1 1 0 1 2 1 1 1 1 1 1 2
1 1 2 2 2 2 2 1 1 1 2 3 3 2 2 2 2 3 3 3 3 4 4 2 1 1 2 2 2 3 2 1 1 1 1 1 1 1 1 1 1 1 2 2
0 2 3 4 2 2 2 2 2 2 2 3 4 2 2 3 3 3 3 2 3 3 3 2 1 1 1 2 3 3 2 1 1 1 1 1 0 1 1 2 3 3 3 3
3 3 2 3 3 2 1 1 0 2 1 2 3 2 2 3 3 3 3 3 3 3 2 2 2 1 1 2 3 3 2 2 1 1 1 1 0 1 1 1 2 3 4 3
3 2 2 3 3 2 1 1 1 1 2 2 1 2 3 2 2 3 3 3 3 3 2 2 2 1 1 1 3 3 3 2 1 1 1 1 1 1 1 2 3 2 3 4
1 0 0 1 1 1 1 1 1 1 1 2 3 3 3 2 2 2 2 2 3 3 2 2 2 1 1 2 2 2 2 2 2 1 1 1 1 1 1 1 1 2 2 3
3 1 1 0 2 2 2 2 3 2 2 3 3 3 3 3 3 2 1 1 2 2 1 1 1 1 1 2 2 2 2 1 1 1 1 1 1 1 1 1 1 1 2 2
2 2 3 3 2 2 2 3 2 2 2 3 3 2 2 2 2 2 2 2 2 1 1 1 2 2 2 2 2 2 1 2 1 1 1 1 1 1 1 1 1 1 2 2
2 2 2 2 2 2 2 1 2 2 2 3 2 2 3 3 2 2 1 0 1 1 2 2 2 2 2 2 2 2 1 1 2 1 2 2 2 2 2 2 2 2 2 2
1 1 1 2 1 2 2 3 3 3 2 2 3 3 3 2 1 1 1 1 0 1 1 2 2 2 2 2 2 2 2 2 2 2 2 2 2 2 2 2 3 3 2 2
3 3 3 3 2 2 2 3 2 2 2 3 3 2 1 1 1 1 1 0 0 2 3 2 2 1 2 2 2 2 2 2 2 2 2 2 2 2 2 2 3 3 3 2
4 3 3 4 3 3 3 3 3 3 2 2 3 2 2 2 1 1 1 0 1 3 3 2 1 1 2 2 2 2 2 2 2 2 2 2 2 2 2 2 2 3 3 2
3 3 3 3 3 3 3 3 3 3 3 3 3 1 1 2 2 2 1 1 3 3 1 1 1 1 1 1 1 2 2 2 2 2 2 2 2 2 2 2 2 2 2 2
2 3 3 3 4 3 3 3 3 2 3 3 2 2 2 2 2 2 1 2 3 3 1 1 1 1 1 1 1 1 2 2 2 2 2 2 2 2 2 2 2 2 2 1
2 2 2 2 2 2 3 3 3 2 2 2 2 2 1 1 1 1 2 2 2 2 1 0 1 0 1 1 1 1 1 1 1 1 2 2 2 2 2 2 1 1 1 1
2 2 2 2 3 4 3 2 2 2 2 1 1 1 1 1 2 2 1 2 2 2 1 1 1 1 1 1 0 0 0 0 1 1 1 1 1 1 1 1 0 0 0 1
1 2 2 3 3 2 1 1 2 3 3 3 3 3 2 1 1 2 1 2 2 2 2 2 2 1 1 1 0 0 0 0 0 0 0 0 0 1 0 1 0 0 1 1
1 1 1 1 0 1 1 2 2 2 2 2 3 3 3 2 2 2 2 2 3 3 2 2 2 1 1 1 1 1 1 1 1 1 1 0 1 1 1 0 1 1 1 1
2 2 2 2 2 2 1 1 1 2 1 1 2 3 3 3 3 3 3 3 3 3 2 2 2 2 1 1 1 1 1 1 1 1 1 0 0 0 1 1 1 1 1 1
Wind_Direction
216 213 163 196 224 190 185 190 192 214 209 222 203 187 172 155 135 124 122 125 132 143 155 142 116 102 116 129 125 126 127 127 131 121 114 106 108 115 118 125 136 139 133 133
256 218 150 156 271 200 207 201 202 203 235 219 166 142 141 149 146 149 153 149 146 143 160 148 131 123 127 135 134 128 129 134 129 121 116 115 117 120 115 118 126 126 141 152
210 265 62 279 246 197 199 214 184 210 222 155 152 163 171 170 170 171 168 158 158 160 170 165 154 149 154 144 134 130 132 130 126 130 126 124 137 131 140 143 134 145 162 156
133 100 215 239 263 144 136 170 213 183 176 163 167 162 167 171 174 177 176 172 168 158 147 131 120 118 129 128 129 135 138 138 139 135 141 127 110 141 165 156 157 184 183 177
130 159 251 286 297 138 143 249 166 148 138 122 110 84 43 200 175 179 184 179 173 161 147 131 127 131 126 120 119 125 135 144 158 157 155 140 126 156 183 162 173 202 200 187
130 150 216 246 295 287 117 259 252 139 146 141 121 131 229 209 156 155 160 157 148 138 122 125 132 130 125 128 134 153 175 177 171 158 153 159 157 136 117 156 192 192 213 215
147 178 248 287 304 100 154 239 222 179 174 162 173 190 187 153 141 141 136 132 128 132 133 142 138 129 136 143 168 185 167 151 143 153 166 157 136 122 119 131 151 181 228 243
142 164 248 329 46 157 215 237 126 143 164 162 159 112 123 137 143 130 121 121 127 129 133 138 139 141 148 172 186 139 122 118 126 146 164 138 133 127 125 128 142 205 226 265
174 195 241 343 207 291 145 109 111 137 153 136 114 96 108 126 136 131 129 127 122 124 122 116 141 152 161 186 151 132 120 134 154 133 97 128 142 143 132 134 166 224 222 238
73 340 348 352 8 22 47 70 46 113 112 123 118 106 103 117 131 128 119 122 120 119 118 124 149 158 164 154 139 126 128 138 151 141 103 96 125 149 164 187 199 221 236 244
46 311 346 347 348 2 27 40 57 63 88 127 122 117 133 142 144 143 131 125 126 129 138 156 149 144 148 142 135 130 139 147 147 146 155 152 157 187 198 216 205 204 223 225
227 218 200 265 301 357 32 3 108 115 92 106 137 160 154 148 147 145 146 140 134 132 137 146 135 148 160 153 147 147 152 156 163 165 159 160 164 1 347 270 261 244 238 231
234 237 222 254 289 312 273 249 211 176 175 157 134 148 144 139 140 139 140 143 150 156 158 155 154 176 197 172 157 160 165 170 171 178 179 189 187 179 317 347 354 306 271 255
280 337 256 265 280 313 329 324 69 75 109 141 126 118 115 109 118 135 152 166 160 147 148 156 161 212 222 173 158 160 164 171 169 181 195 201 203 207 216 241 313 328 317 276
350 26 157 49 19 15 23 57 67 64 79 81 102 113 122 131 145 157 151 140 128 124 146 173 184 236 211 172 168 172 175 179 178 178 187 197 199 203 219 233 254 288 315 320
0 30 65 69 47 23 42 68 84 88 97 98 95 99 114 120 132 126 108 115 133 167 215 206 223 244 211 180 175 176 188 193 170 173 183 193 198 208 227 236 246 263 274 279
47 45 62 67 36 23 29 53 117 117 105 107 116 106 92 84 77 77 75 147 164 197 216 214 236 246 208 186 180 188 185 184 186 184 204 209 209 220 235 240 247 261 269 262
57 119 130 134 124 70 41 50 76 92 98 107 106 101 104 113 135 244 272 297 324 290 263 243 232 212 194 188 184 188 185 189 197 211 224 225 225 229 235 238 243 254 275 276
32 46 51 67 86 104 87 68 64 75 87 101 104 106 119 150 190 283 312 14 306 280 280 274 259 208 201 206 190 181 184 197 210 220 223 225 227 235 235 240 248 253 258 258
40 45 49 54 64 72 72 66 62 54 56 91 92 74 45 6 352 353 360 343 273 264 268 272 242 220 219 214 208 191 194 207 217 223 226 226 231 242 240 240 248 253 255 251
46 44 49 52 59 59 58 63 70 58 41 60 79 81 27 344 355 13 41 335 308 310 299 274 235 235 230 210 200 192 200 213 221 224 226 229 235 243 245 246 248 257 261 253
47 50 49 50 57 50 37 50 66 68 56 51 45 42 38 12 359 3 354 272 294 319 324 287 274 265 247 192 185 196 204 216 221 222 226 226 226 231 238 242 247 256 258 238
48 52 54 54 62 51 39 41 43 51 56 50 43 35 13 323 324 347 318 305 310 327 342 309 307 12 105 144 170 192 222 236 233 228 227 228 219 221 229 238 244 249 245 211
48 47 45 49 65 60 39 9 17 22 26 20 13 0 349 341 336 314 274 310 331 339 360 329 4 48 94 104 115 143 191 237 247 236 216 193 182 197 205 202 214 229 171 155
59 50 47 53 55 44 5 10 28 22 23 13 1 357 352 321 287 308 331 347 353 4 2 354 4 21 77 83 86 63 320 287 266 210 159 155 163 162 166 168 168 135 106 100
60 60 49 42 43 34 40 50 43 16 21 14 358 352 353 355 349 351 9 13 15 16 11 2 8 24 51 63 69 60 46 48 59 72 102 131 139 143 151 140 118 119 112 116
40 39 39 31 22 30 48 52 41 14 8 20 356 346 352 4 10 10 15 16 19 19 11 6 11 22 31 34 39 44 52 49 47 61 66 64 90 126 138 136 132 121 107 106